| time (UTC) | temp F | wind direction | speed MPH | gust MPH | rain 1hr in | rain 24hr in | rain mn in | humidity % | barometer mb |
| 20260503213016 | 57 | 0.0 | 1.0 | 0.00 | 0.00 | 0.00 | 25 | 1004.5 | |
| 20260503212016 | 56 | 0.0 | 2.0 | 0.00 | 0.00 | 0.00 | 24 | 1004.5 | |
| 20260503211036 | 56 | 270 | 1.0 | 3.0 | 0.00 | 0.00 | 0.00 | 23 | 1004.6 |
| 20260503210016 | 56 | 293 | 2.0 | 4.0 | 0.00 | 0.00 | 0.00 | 25 | 1004.7 |
| 20260503205016 | 56 | 270 | 2.0 | 6.0 | 0.00 | 0.00 | 0.00 | 25 | 1004.8 |
| 20260503204016 | 55 | 225 | 1.0 | 3.0 | 0.00 | 0.00 | 0.00 | 27 | 1004.8 |
| 20260503203016 | 55 | 293 | 1.0 | 4.0 | 0.00 | 0.00 | 0.00 | 27 | 1005.0 |
| 20260503202016 | 55 | 225 | 1.0 | 6.0 | 0.00 | 0.00 | 0.00 | 30 | 1005.0 |
| 20260503201016 | 54 | 270 | 2.0 | 4.0 | 0.00 | 0.00 | 0.00 | 28 | 1005.1 |
| 20260503200016 | 55 | 293 | 2.0 | 4.0 | 0.00 | 0.00 | 0.00 | 27 | 1005.2 |
| 20260503195056 | 54 | 248 | 1.0 | 2.0 | 0.00 | 0.00 | 0.00 | 31 | 1005.5 |
| 20260503194016 | 54 | 90 | 1.0 | 3.0 | 0.00 | 0.00 | 0.00 | 33 | 1005.6 |
| 20260503193036 | 54 | 0.0 | 2.0 | 0.00 | 0.00 | 0.00 | 32 | 1005.7 | |
| 20260503192016 | 54 | 225 | 1.0 | 4.0 | 0.00 | 0.00 | 0.00 | 29 | 1005.8 |
| 20260503191016 | 54 | 293 | 2.0 | 8.0 | 0.00 | 0.00 | 0.00 | 27 | 1005.9 |
| 20260503190015 | 54 | 0.0 | 2.0 | 0.00 | 0.00 | 0.00 | 33 | 1006.0 | |
| 20260503185016 | 54 | 270 | 1.0 | 3.0 | 0.00 | 0.00 | 0.00 | 31 | 1006.1 |
| 20260503184016 | 54 | 270 | 2.0 | 6.0 | 0.00 | 0.00 | 0.00 | 29 | 1006.2 |
| 20260503183036 | 54 | 270 | 2.0 | 4.0 | 0.00 | 0.00 | 0.00 | 28 | 1006.3 |
| 20260503182016 | 55 | 270 | 2.0 | 7.0 | 0.00 | 0.00 | 0.00 | 28 | 1006.5 |
| 20260503181016 | 55 | 248 | 2.0 | 5.0 | 0.00 | 0.00 | 0.00 | 32 | 1006.6 |
| 20260503180016 | 54 | 225 | 2.0 | 6.0 | 0.00 | 0.00 | 0.00 | 30 | 1006.6 |
| 20260503175016 | 53 | 270 | 1.0 | 4.0 | 0.00 | 0.00 | 0.00 | 33 | 1006.8 |
| 20260503174016 | 53 | 225 | 2.0 | 7.0 | 0.00 | 0.00 | 0.00 | 32 | 1007.0 |
| 20260503173015 | 52 | 270 | 1.0 | 4.0 | 0.00 | 0.00 | 0.00 | 31 | 1007.1 |
| 20260503172016 | 53 | 180 | 1.0 | 4.0 | 0.00 | 0.00 | 0.00 | 32 | 1007.2 |
| 20260503171016 | 52 | 225 | 1.0 | 4.0 | 0.00 | 0.00 | 0.00 | 33 | 1007.3 |
| 20260503131016 | 44 | 0.0 | 0.0 | 0.00 | 0.00 | 0.00 | 55 | 1009.9 | |
| 20260503081016 | 37 | 0.0 | 0.0 | 0.00 | 0.00 | 0.00 | 67 | 1010.6 | |
| 20260503072036 | 37 | 0.0 | 0.0 | 0.00 | 0.00 | 0.00 | 67 | 1010.6 | |
| 20260503071016 | 37 | 0.0 | 0.0 | 0.00 | 0.00 | 0.00 | 67 | 1010.6 | |
| 20260503055016 | 38 | 0.0 | 0.0 | 0.00 | 0.00 | 0.00 | 66 | 1011.0 | |
| 20260503054056 | 38 | 0.0 | 0.0 | 0.00 | 0.00 | 0.00 | 66 | 1011.0 | |
| 20260503053016 | 38 | 0.0 | 0.0 | 0.00 | 0.00 | 0.00 | 66 | 1011.1 | |
| 20260503052016 | 38 | 0.0 | 0.0 | 0.00 | 0.00 | 0.00 | 65 | 1011.1 | |
| 20260503051015 | 38 | 0.0 | 0.0 | 0.00 | 0.00 | 0.00 | 66 | 1011.1 | |
| 20260503050016 | 38 | 0.0 | 0.0 | 0.00 | 0.00 | 0.00 | 64 | 1011.2 | |
| 20260503045016 | 39 | 0.0 | 0.0 | 0.00 | 0.00 | 0.00 | 63 | 1011.2 | |
| 20260503044016 | 39 | 0.0 | 0.0 | 0.00 | 0.00 | 0.00 | 63 | 1011.3 | |
| 20260503043015 | 39 | 0.0 | 0.0 | 0.00 | 0.00 | 0.00 | 62 | 1011.3 | |
| 20260503042516 | 39 | 0.0 | 0.0 | 0.00 | 0.00 | 0.00 | 61 | 1011.4 | |
| 20260503041516 | 39 | 0.0 | 0.0 | 0.00 | 0.00 | 0.00 | 62 | 1011.4 | |
| 20260503040537 | 39 | 0.0 | 0.0 | 0.00 | 0.00 | 0.00 | 62 | 1011.4 | |
| 20260503035516 | 39 | 0.0 | 0.0 | 0.00 | 0.00 | 0.00 | 61 | 1011.4 | |
| 20260503034516 | 40 | 0.0 | 0.0 | 0.00 | 0.00 | 0.00 | 60 | 1011.4 | |
| 20260503033516 | 40 | 0.0 | 0.0 | 0.00 | 0.00 | 0.00 | 59 | 1011.4 | |
| 20260503032516 | 40 | 0.0 | 0.0 | 0.00 | 0.00 | 0.00 | 58 | 1011.5 | |
| 20260503031536 | 40 | 0.0 | 0.0 | 0.00 | 0.00 | 0.00 | 58 | 1011.5 | |
| 20260503030516 | 40 | 0.0 | 0.0 | 0.00 | 0.00 | 0.00 | 57 | 1011.6 | |
| 20260503025516 | 40 | 0.0 | 0.0 | 0.00 | 0.00 | 0.00 | 57 | 1011.6 | |
| 20260503024516 | 41 | 0.0 | 0.0 | 0.00 | 0.00 | 0.00 | 57 | 1011.6 | |
| 20260503023516 | 41 | 0.0 | 0.0 | 0.00 | 0.00 | 0.00 | 55 | 1011.7 | |
| 20260503022516 | 41 | 0.0 | 0.0 | 0.00 | 0.00 | 0.00 | 53 | 1011.7 | |
| 20260503021516 | 41 | 0.0 | 0.0 | 0.00 | 0.00 | 0.00 | 54 | 1011.8 | |
| 20260503020516 | 42 | 0.0 | 0.0 | 0.00 | 0.00 | 0.00 | 53 | 1011.8 | |
| 20260503015536 | 42 | 0.0 | 0.0 | 0.00 | 0.00 | 0.00 | 52 | 1011.9 | |
| 20260503014516 | 42 | 0.0 | 0.0 | 0.00 | 0.00 | 0.00 | 51 | 1011.9 | |
| 20260503013517 | 42 | 0.0 | 0.0 | 0.00 | 0.00 | 0.00 | 48 | 1011.7 | |
| 20260503012516 | 43 | 0.0 | 0.0 | 0.00 | 0.00 | 0.00 | 46 | 1011.7 | |
| 20260503011517 | 43 | 0.0 | 1.0 | 0.00 | 0.00 | 0.00 | 43 | 1011.7 | |
| 20260503010516 | 43 | 0.0 | 0.0 | 0.00 | 0.00 | 0.00 | 43 | 1011.6 | |
| 20260503005536 | 43 | 0.0 | 0.0 | 0.00 | 0.00 | 0.00 | 43 | 1011.5 | |
| 20260503004516 | 43 | 0.0 | 0.0 | 0.00 | 0.00 | 0.00 | 43 | 1011.5 | |
| 20260503003516 | 44 | 0.0 | 0.0 | 0.00 | 0.00 | 0.00 | 43 | 1011.5 | |
| 20260503002516 | 44 | 0.0 | 3.0 | 0.00 | 0.00 | 0.00 | 42 | 1011.4 | |
| 20260503001536 | 44 | 0.0 | 0.0 | 0.00 | 0.00 | 0.00 | 42 | 1011.3 | |
| 20260503000516 | 44 | 338 | 1.0 | 4.0 | 0.00 | 0.00 | 0.00 | 42 | 1011.2 |
| 20260502235516 | 45 | 0 | 1.0 | 5.0 | 0.00 | 0.00 | 0.00 | 42 | 1011.1 |
| 20260502234516 | 45 | 0.0 | 0.0 | 0.00 | 0.00 | 0.00 | 42 | 1011.1 | |
| 20260502233516 | 45 | 0.0 | 1.0 | 0.00 | 0.00 | 0.00 | 43 | 1011.0 | |
| 20260502232516 | 45 | 0.0 | 2.0 | 0.00 | 0.00 | 0.00 | 42 | 1011.0 | |
| 20260502231516 | 45 | 0.0 | 0.0 | 0.00 | 0.00 | 0.00 | 45 | 1010.9 | |
| 20260502230536 | 45 | 0.0 | 1.0 | 0.00 | 0.00 | 0.00 | 45 | 1010.8 | |
| 20260502225516 | 46 | 338 | 1.0 | 5.0 | 0.00 | 0.00 | 0.00 | 39 | 1010.8 |
| 20260502224516 | 46 | 0.0 | 0.0 | 0.00 | 0.00 | 0.00 | 42 | 1010.6 | |
| 20260502223516 | 46 | 0.0 | 1.0 | 0.00 | 0.00 | 0.00 | 41 | 1010.6 | |
| 20260502222536 | 46 | 0.0 | 1.0 | 0.00 | 0.00 | 0.00 | 44 | 1010.6 | |
| 20260502221516 | 46 | 0.0 | 0.0 | 0.00 | 0.00 | 0.00 | 44 | 1010.7 | |
| 20260502220516 | 46 | 270 | 2.0 | 7.0 | 0.00 | 0.00 | 0.00 | 40 | 1010.7 |
| 20260502215516 | 46 | 0.0 | 3.0 | 0.00 | 0.00 | 0.00 | 42 | 1010.5 | |
| 20260502214516 | 46 | 0.0 | 1.0 | 0.00 | 0.00 | 0.00 | 43 | 1010.5 |